Terminal Aerodrome Forecast
Issued by NWS Dallas/Fort Worth, TX

Home | Current Version | Previous Version | Text Only | Print | Product List | Glossary On
Versions: 1 2 3 4 5 6 7 8 9 10 11 12 13 14 15 16 17 18 19 20 21 22 23 24 25 26 27 28 29 30 31
000
FTUS44 KFWD 161127
TAFACT
TAF
KACT 161127Z 1612/1712 VRB03KT 1/2SM FG VV003
      TEMPO 1612/1615 1SM BR
     FM161500 29006KT P6SM SCT250
     FM170000 01007KT P6SM BKN050 BKN250
     FM170400 36005KT 4SM BR BKN050 BKN250=

USA.gov is the U.S. government's official web portal to all federal, state and local government web resources and services.